This is the latest recevied weather packets stored in our database for station/object WP3OF-5. If no packets are shown the sender has not sent any weather packets the latest 10 day(s).
| Time | Temp. | Humidity | Pressure | Rain* | Wind** | Luminosity | Snow |
|---|---|---|---|---|---|---|---|
| 1777772611 | 22.78° C | 96% | 1017.6 hPa | 0 mm | - | - | - |
| 1777771400 | 23.33° C | 95% | 1017.4 hPa | 0 mm | - | - | - |
| 1777768369 | 23.89° C | 94% | 1016.6 hPa | 0 mm | - | - | - |
| 1777767763 | 23.89° C | 93% | 1016.6 hPa | 0 mm | - | - | - |
| 1777767459 | 24.44° C | 93% | 1016.5 hPa | 0 mm | - | - | - |
| 1777766853 | 24.44° C | 93% | 1016.2 hPa | 0 mm | - | - | - |
| 1777766247 | 24.44° C | 92% | 1016.3 hPa | 0 mm | - | - | - |
| 1777765034 | 25° C | 91% | 1016.2 hPa | 0 mm | - | - | - |
| 1777764731 | 25° C | 91% | 1016 hPa | 0 mm | - | - | - |
| 1777764427 | 25° C | 90% | 1016 hPa | 0 mm | - | - | - |
| 1777763821 | 25.56° C | 89% | 1015.9 hPa | 0 mm | - | - | - |
| 1777761399 | 26.11° C | 86% | 1015.2 hPa | 0 mm | - | - | - |
| 1777761097 | 26.67° C | 86% | 1015.3 hPa | 0 mm | - | - | - |
| 1777760794 | 26.67° C | 85% | 1015.4 hPa | 0 mm | - | - | - |
| 1777760186 | 26.67° C | 84% | 1015.1 hPa | 0 mm | - | - | - |
| 1777759883 | 26.67° C | 84% | 1015.2 hPa | 0 mm | - | - | - |
| 1777759580 | 26.67° C | 83% | 1014.9 hPa | 0 mm | - | - | - |
| 1777759276 | 26.67° C | 84% | 1015.1 hPa | 0 mm | - | - | - |
| 1777757761 | 26.67° C | 85% | 1014.8 hPa | 0 mm | - | - | - |
| 1777757459 | 26.67° C | 84% | 1014.7 hPa | 0 mm | - | - | - |
| 1777757158 | 27.22° C | 85% | 1014.5 hPa | 0 mm | - | - | - |
| 1777756855 | 27.22° C | 86% | 1014.8 hPa | 0 mm | - | - | - |
| 1777756550 | 27.22° C | 86% | 1014.5 hPa | 0 mm | - | - | - |
| 1777756248 | 26.67° C | 86% | 1014.4 hPa | 0 mm | - | - | - |
| 1777755945 | 26.67° C | 85% | 1014.4 hPa | 0 mm | - | - | - |
* Rain latest hour (hover to see other rain measurements)
** Current wind speed in m/s (hover to see current wind gust speed)